ABW8891 USSS-UOOO

Flight info

Callsign ABW8891
Flight time 2h 23m
Altitude 41000
Route USSS DOSUM L992 NAMOL T376 UTORA A925 HMN R124 TARSA R717 SUBOT UOO
Aircraft B772/H-SDE2E3FGHIJ5LORVWXY/LB1D1

Departure

Time 2026-04-18 10:35
Airport Koltsovo Airport (USSS)

Arrival

Time 2026-04-18 12:58
Airport Alykel International Airport (UOOO)
Time Latitude Longitude Altitude Speed Heading
2026-04-18 09:59 56.74774 60.80904 760 ft 0 kts
2026-04-18 10:27 56.74775 60.80904 760 ft 0 kts
2026-04-18 10:27 56.74791 60.80904 760 ft 4 kts
2026-04-18 10:27 56.74825 60.80920 761 ft 7 kts 40°
2026-04-18 10:28 56.74848 60.81031 763 ft 12 kts 74°
2026-04-18 10:28 56.74861 60.81205 768 ft 15 kts 90°
2026-04-18 10:28 56.74860 60.81409 777 ft 16 kts 90°
2026-04-18 10:28 56.74860 60.81626 780 ft 20 kts 90°
2026-04-18 10:29 56.74852 60.81847 782 ft 14 kts 106°
2026-04-18 10:29 56.74803 60.82045 780 ft 17 kts 116°
2026-04-18 10:29 56.74736 60.82198 776 ft 18 kts 164°
2026-04-18 10:29 56.74629 60.82209 770 ft 13 kts 180°
2026-04-18 10:30 56.74512 60.82206 764 ft 20 kts 180°
2026-04-18 10:30 56.74366 60.82195 763 ft 17 kts 184°
2026-04-18 10:30 56.74252 60.82180 762 ft 17 kts 184°
2026-04-18 10:30 56.74215 60.82175 761 ft 0 kts 184°
2026-04-18 10:31 56.74214 60.82175 761 ft 0 kts 184°
2026-04-18 10:31 56.74189 60.82172 761 ft 7 kts 184°
2026-04-18 10:32 56.74121 60.82164 760 ft 9 kts 184°
2026-04-18 10:32 56.74067 60.82082 760 ft 13 kts 263°
2026-04-18 10:32 56.74069 60.81964 759 ft 0 kts 274°
2026-04-18 10:34 56.74069 60.81962 759 ft 1 kts 274°
2026-04-18 10:34 56.74077 60.81767 757 ft 39 kts 274°
2026-04-18 10:34 56.74117 60.80745 754 ft 119 kts 274°
2026-04-18 10:35 56.74186 60.78937 931 ft 163 kts 273°
2026-04-18 10:35 56.74273 60.76926 1884 ft 160 kts 271°
2026-04-18 10:35 56.74278 60.74965 2521 ft 162 kts 270°
2026-04-18 10:35 56.74294 60.72871 2868 ft 176 kts 270°
2026-04-18 10:36 56.74323 60.70567 3184 ft 190 kts 271°
2026-04-18 10:36 56.74353 60.68184 3434 ft 204 kts 271°
2026-04-18 10:36 56.74386 60.65540 3627 ft 219 kts 271°
2026-04-18 10:36 56.74344 60.62882 3926 ft 223 kts 258°
2026-04-18 10:37 56.73674 60.60525 4249 ft 227 kts 229°
2026-04-18 10:37 56.71338 60.58933 4822 ft 238 kts 178°
2026-04-18 10:37 56.69811 60.59968 5165 ft 246 kts 148°
2026-04-18 10:38 56.68732 60.62289 5493 ft 264 kts 118°
2026-04-18 10:38 56.68303 60.65308 5836 ft 278 kts 97°
2026-04-18 10:38 56.68426 60.68702 6332 ft 285 kts 73°
2026-04-18 10:38 56.69326 60.71718 6867 ft 288 kts 47°
2026-04-18 10:39 56.70718 60.73804 7378 ft 288 kts 32°
2026-04-18 10:39 56.72406 60.75818 7962 ft 291 kts 31°
2026-04-18 10:39 56.73911 60.77576 8466 ft 293 kts 30°
2026-04-18 10:39 56.75631 60.79509 9020 ft 296 kts 30°
2026-04-18 10:40 56.76969 60.81007 9441 ft 298 kts 30°
2026-04-18 10:40 56.79524 60.83864 10206 ft 303 kts 30°
2026-04-18 10:40 56.81327 60.85882 10410 ft 317 kts 30°
2026-04-18 10:40 56.83120 60.87889 10537 ft 332 kts 30°
2026-04-18 10:41 56.85014 60.90015 10636 ft 346 kts 30°
2026-04-18 10:41 56.87056 60.92309 10704 ft 360 kts 30°
2026-04-18 10:41 56.89230 60.94754 10739 ft 374 kts 30°
2026-04-18 10:41 56.91359 60.97154 10805 ft 384 kts 30°
2026-04-18 10:42 56.93469 60.99536 11058 ft 387 kts 30°
2026-04-18 10:42 56.95761 61.02129 11404 ft 389 kts 30°
2026-04-18 10:42 56.97895 61.04545 11746 ft 392 kts 30°
2026-04-18 10:42 57.00222 61.07185 12134 ft 394 kts 30°
2026-04-18 10:43 57.02586 61.09870 12544 ft 398 kts 30°
2026-04-18 10:43 57.04891 61.12492 12958 ft 401 kts 30°
2026-04-18 10:43 57.06448 61.14265 13240 ft 403 kts 30°
2026-04-18 10:43 57.09626 61.17889 13833 ft 409 kts 30°
2026-04-18 10:44 57.12013 61.20617 14290 ft 414 kts 30°
2026-04-18 10:44 57.14436 61.23391 14811 ft 417 kts 30°
2026-04-18 10:44 57.16773 61.26070 15371 ft 420 kts 30°
2026-04-18 10:44 57.19204 61.28862 15959 ft 423 kts 30°
2026-04-18 10:45 57.21617 61.31637 16521 ft 427 kts 30°
2026-04-18 10:45 57.24049 61.34438 17075 ft 430 kts 30°
2026-04-18 10:45 57.26559 61.37334 17639 ft 434 kts 30°
2026-04-18 10:45 57.29015 61.40174 18182 ft 437 kts 30°
2026-04-18 10:46 57.31552 61.43063 18733 ft 441 kts 29°
2026-04-18 10:46 57.34016 61.45840 19252 ft 444 kts 29°
2026-04-18 10:46 57.36573 61.48726 19788 ft 448 kts 29°
2026-04-18 10:46 57.39110 61.51597 20314 ft 451 kts 29°
2026-04-18 10:47 57.41606 61.54588 20819 ft 455 kts 35°
2026-04-18 10:47 57.44071 61.58444 21350 ft 460 kts 40°
2026-04-18 10:47 57.46338 61.62257 21859 ft 464 kts 41°
2026-04-18 10:47 57.48732 61.66305 22392 ft 467 kts 41°
2026-04-18 10:48 57.51148 61.70398 22911 ft 471 kts 41°
2026-04-18 10:48 57.53567 61.74505 23424 ft 475 kts 41°
2026-04-18 10:48 57.55987 61.78621 23936 ft 479 kts 41°
2026-04-18 10:48 57.58472 61.82855 24461 ft 482 kts 41°
2026-04-18 10:49 57.60945 61.87078 24969 ft 486 kts 41°
2026-04-18 10:49 57.63446 61.91356 25469 ft 490 kts 41°
2026-04-18 10:49 57.65913 61.95583 25959 ft 493 kts 41°
2026-04-18 10:49 57.68457 61.99952 26455 ft 497 kts 41°
2026-04-18 10:50 57.70985 62.04301 26933 ft 500 kts 41°
2026-04-18 10:50 57.73565 62.08751 27410 ft 504 kts 41°
2026-04-18 10:50 57.76129 62.13180 27876 ft 507 kts 41°
2026-04-18 10:50 57.78738 62.17696 28334 ft 511 kts 41°
2026-04-18 10:51 57.81352 62.22231 28793 ft 514 kts 41°
2026-04-18 10:51 57.83981 62.26802 29243 ft 518 kts 41°
2026-04-18 10:51 57.86617 62.31393 29773 ft 519 kts 41°
2026-04-18 10:51 57.89210 62.35920 30408 ft 517 kts 41°
2026-04-18 10:52 57.91701 62.40278 31052 ft 515 kts 41°
2026-04-18 10:52 57.94253 62.44753 31671 ft 513 kts 41°
2026-04-18 10:52 57.96873 62.49355 32283 ft 512 kts 41°
2026-04-18 10:52 57.99485 62.53953 32879 ft 511 kts 41°
2026-04-18 10:53 58.02048 62.58474 33460 ft 511 kts 41°
2026-04-18 10:53 58.04646 62.63065 34066 ft 509 kts 41°
2026-04-18 10:53 58.07152 62.67505 34628 ft 508 kts 42°
2026-04-18 10:53 58.09700 62.72027 35159 ft 507 kts 42°
2026-04-18 10:54 58.12257 62.76575 35663 ft 507 kts 42°
2026-04-18 10:54 58.14818 62.81139 36151 ft 506 kts 42°
2026-04-18 10:54 58.17343 62.85648 36589 ft 505 kts 42°
2026-04-18 10:54 58.19906 62.90233 36969 ft 505 kts 42°
2026-04-18 10:55 58.22460 62.94813 37267 ft 507 kts 42°
2026-04-18 10:55 58.25037 62.99443 37522 ft 509 kts 42°
2026-04-18 10:55 58.27617 63.04089 37776 ft 511 kts 42°
2026-04-18 10:55 58.30175 63.08704 38049 ft 513 kts 43°
2026-04-18 10:56 58.32740 63.13342 38309 ft 514 kts 43°
2026-04-18 10:56 58.35342 63.18057 38573 ft 514 kts 43°
2026-04-18 10:56 58.37902 63.22707 38855 ft 514 kts 43°
2026-04-18 10:56 58.40482 63.27403 39136 ft 513 kts 43°
2026-04-18 10:57 58.43055 63.32094 39399 ft 513 kts 43°
2026-04-18 10:57 58.45439 63.36452 39615 ft 513 kts 43°
2026-04-18 10:57 58.48032 63.41199 39825 ft 513 kts 43°
2026-04-18 10:57 58.50596 63.45906 40039 ft 513 kts 43°
2026-04-18 10:58 58.53189 63.50674 40240 ft 513 kts 43°
2026-04-18 10:58 58.55737 63.55371 40426 ft 513 kts 43°
2026-04-18 10:58 58.58292 63.60089 40607 ft 513 kts 43°
2026-04-18 10:58 58.60878 63.64875 40779 ft 513 kts 43°
2026-04-18 10:59 58.63407 63.69567 40920 ft 513 kts 43°
2026-04-18 10:59 58.65970 63.74330 41058 ft 514 kts 43°
2026-04-18 10:59 58.68535 63.79110 41215 ft 514 kts 43°
2026-04-18 11:00 58.73624 63.88756 41252 ft 514 kts 45°
2026-04-18 11:00 58.78568 63.98671 41254 ft 513 kts 45°
2026-04-18 11:01 58.83514 64.08625 41254 ft 514 kts 45°
2026-04-18 11:01 58.88261 64.18205 41255 ft 513 kts 45°
2026-04-18 11:02 58.95602 64.33078 41255 ft 502 kts 47°
2026-04-18 11:02 59.00362 64.42769 41256 ft 493 kts 47°
2026-04-18 11:03 59.05037 64.52326 41254 ft 485 kts 47°
2026-04-18 11:03 59.09692 64.61883 41256 ft 488 kts 47°
2026-04-18 11:04 59.14308 64.71400 41249 ft 486 kts 48°
2026-04-18 11:04 59.18961 64.81031 41250 ft 486 kts 48°
2026-04-18 11:05 59.23596 64.90667 41250 ft 491 kts 49°
2026-04-18 11:05 59.28292 65.00472 41250 ft 494 kts 49°
2026-04-18 11:06 59.32984 65.10309 41250 ft 496 kts 49°
2026-04-18 11:06 59.37673 65.20181 41250 ft 495 kts 49°
2026-04-18 11:07 59.42368 65.30112 41251 ft 495 kts 49°
2026-04-18 11:07 59.47022 65.40001 41251 ft 495 kts 49°
2026-04-18 11:08 59.51714 65.50022 41252 ft 495 kts 49°
2026-04-18 11:08 59.56346 65.59959 41253 ft 495 kts 49°
2026-04-18 11:09 59.61002 65.69988 41252 ft 495 kts 50°
2026-04-18 11:09 59.65624 65.79991 41252 ft 495 kts 50°
2026-04-18 11:10 59.70246 65.90037 41253 ft 495 kts 50°
2026-04-18 11:10 59.74823 66.00211 41253 ft 495 kts 51°
2026-04-18 11:11 59.79353 66.10555 41254 ft 495 kts 51°
2026-04-18 11:11 59.83861 66.20879 41255 ft 495 kts 51°
2026-04-18 11:12 59.88350 66.31200 41261 ft 494 kts 51°
2026-04-18 11:12 59.92841 66.41563 41280 ft 495 kts 51°
2026-04-18 11:13 59.97301 66.51901 41296 ft 494 kts 51°
2026-04-18 11:13 60.01798 66.62369 41297 ft 495 kts 51°
2026-04-18 11:14 60.06265 66.72827 41297 ft 494 kts 52°
2026-04-18 11:14 60.10694 66.83257 41294 ft 495 kts 52°
2026-04-18 11:15 60.15109 66.93697 41289 ft 494 kts 52°
2026-04-18 11:15 60.19566 67.04287 41290 ft 497 kts 52°
2026-04-18 11:16 60.24036 67.14955 41289 ft 500 kts 53°
2026-04-18 11:16 60.28511 67.25685 41290 ft 502 kts 53°
2026-04-18 11:17 60.32982 67.36453 41290 ft 501 kts 53°
2026-04-18 11:17 60.37439 67.47239 41291 ft 501 kts 53°
2026-04-18 11:18 60.41902 67.58093 41292 ft 501 kts 53°
2026-04-18 11:18 60.46333 67.68916 41292 ft 501 kts 54°
2026-04-18 11:19 60.50777 67.79825 41292 ft 501 kts 54°
2026-04-18 11:19 60.55211 67.90762 41293 ft 500 kts 54°
2026-04-18 11:20 60.59614 68.01673 41293 ft 501 kts 54°
2026-04-18 11:20 60.64024 68.12655 41294 ft 501 kts 54°
2026-04-18 11:21 60.68413 68.23634 41294 ft 500 kts 54°
2026-04-18 11:21 60.72809 68.34686 41295 ft 501 kts 54°
2026-04-18 11:22 60.77190 68.45748 41296 ft 501 kts 53°
2026-04-18 11:22 60.81578 68.56866 41296 ft 500 kts 53°
2026-04-18 11:23 60.85959 68.68016 41297 ft 500 kts 54°
2026-04-18 11:23 60.90296 68.79112 41298 ft 500 kts 54°
2026-04-18 11:24 60.94637 68.90272 41297 ft 499 kts 54°
2026-04-18 11:24 60.98995 69.01532 41299 ft 503 kts 54°
2026-04-18 11:25 61.03422 69.12725 41300 ft 506 kts 49°
2026-04-18 11:25 61.08602 69.22618 41300 ft 509 kts 44°
2026-04-18 11:26 61.13844 69.32343 41288 ft 508 kts 44°
2026-04-18 11:26 61.19115 69.42183 41289 ft 508 kts 44°
2026-04-18 11:27 61.24379 69.52068 41290 ft 508 kts 44°
2026-04-18 11:27 61.29626 69.61970 41290 ft 508 kts 44°
2026-04-18 11:28 61.34824 69.71829 41290 ft 508 kts 45°
2026-04-18 11:28 61.40080 69.81787 41291 ft 508 kts 45°
2026-04-18 11:29 61.45338 69.91716 41291 ft 508 kts 45°
2026-04-18 11:29 61.50559 70.01623 41292 ft 508 kts 45°
2026-04-18 11:30 61.55789 70.11601 41293 ft 508 kts 45°
2026-04-18 11:30 61.60997 70.21584 41294 ft 508 kts 45°
2026-04-18 11:31 61.66227 70.31660 41295 ft 508 kts 45°
2026-04-18 11:31 61.71435 70.41741 41296 ft 508 kts 45°
2026-04-18 11:32 61.76633 70.51852 41296 ft 508 kts 45°
2026-04-18 11:32 61.81834 70.62017 41297 ft 508 kts 45°
2026-04-18 11:33 61.87026 70.72213 41297 ft 508 kts 45°
2026-04-18 11:33 61.92197 70.82421 41297 ft 508 kts 45°
2026-04-18 11:34 61.97403 70.92746 41298 ft 508 kts 45°
2026-04-18 11:34 62.02539 71.02988 41298 ft 508 kts 45°
2026-04-18 11:35 62.07692 71.13328 41289 ft 508 kts 45°
2026-04-18 11:35 62.12848 71.23723 41262 ft 508 kts 45°
2026-04-18 11:36 62.17976 71.34113 41249 ft 508 kts 45°
2026-04-18 11:36 62.23092 71.44531 41249 ft 508 kts 45°
2026-04-18 11:37 62.28193 71.54967 41250 ft 508 kts 45°
2026-04-18 11:37 62.33310 71.65488 41251 ft 508 kts 46°
2026-04-18 11:38 62.38419 71.76045 41249 ft 508 kts 46°
2026-04-18 11:38 62.43504 71.86610 41250 ft 508 kts 46°
2026-04-18 11:39 62.48577 71.97210 41251 ft 508 kts 46°
2026-04-18 11:39 62.53624 72.07806 41252 ft 508 kts 46°
2026-04-18 11:40 62.58709 72.18537 41253 ft 508 kts 46°
2026-04-18 11:40 62.63761 72.29252 41253 ft 508 kts 46°
2026-04-18 11:41 62.68799 72.39991 41254 ft 508 kts 46°
2026-04-18 11:41 62.73833 72.50776 41255 ft 508 kts 46°
2026-04-18 11:42 62.78884 72.61651 41256 ft 508 kts 46°
2026-04-18 11:42 62.83889 72.72483 41254 ft 507 kts 46°
2026-04-18 11:43 62.88889 72.83360 41255 ft 508 kts 46°
2026-04-18 11:43 62.93907 72.94329 41256 ft 508 kts 46°
2026-04-18 11:44 62.98908 73.05319 41256 ft 506 kts 46°
2026-04-18 11:44 63.03820 73.16167 41257 ft 502 kts 46°
2026-04-18 11:45 63.08742 73.27094 41258 ft 501 kts 46°
2026-04-18 11:45 63.13669 73.38090 41249 ft 501 kts 46°
2026-04-18 11:46 63.18561 73.49061 41249 ft 501 kts 46°
2026-04-18 11:46 63.23481 73.60153 41250 ft 501 kts 46°
2026-04-18 11:47 63.28359 73.71205 41248 ft 500 kts 47°
2026-04-18 11:47 63.33235 73.82311 41249 ft 501 kts 47°
2026-04-18 11:48 63.38070 73.93379 41250 ft 500 kts 47°
2026-04-18 11:48 63.42907 74.04512 41251 ft 500 kts 47°
2026-04-18 11:49 63.47744 74.15700 41251 ft 500 kts 47°
2026-04-18 11:49 63.52571 74.26923 41252 ft 501 kts 47°
2026-04-18 11:50 63.57418 74.38252 41253 ft 501 kts 47°
2026-04-18 11:50 63.62203 74.49496 41253 ft 500 kts 47°
2026-04-18 11:51 63.67014 74.60857 41254 ft 501 kts 47°
2026-04-18 11:51 63.71814 74.72254 41253 ft 500 kts 48°
2026-04-18 11:52 63.76604 74.83690 41254 ft 500 kts 48°
2026-04-18 11:52 63.81385 74.95161 41254 ft 500 kts 49°
2026-04-18 11:53 63.86133 75.06615 41255 ft 499 kts 49°
2026-04-18 11:53 63.90892 75.18158 41249 ft 498 kts 49°
2026-04-18 11:54 63.95598 75.29642 41221 ft 498 kts 49°
2026-04-18 11:54 64.00330 75.41248 41196 ft 499 kts 49°
2026-04-18 11:55 64.05016 75.52807 41196 ft 498 kts 49°
2026-04-18 11:55 64.09723 75.64477 41208 ft 497 kts 49°
2026-04-18 11:56 64.14383 75.76091 41206 ft 496 kts 50°
2026-04-18 11:56 64.19030 75.87738 41207 ft 497 kts 50°
2026-04-18 11:57 64.23689 75.99477 41207 ft 496 kts 50°
2026-04-18 11:57 64.28339 76.11256 41208 ft 497 kts 50°
2026-04-18 11:58 64.32992 76.23106 41209 ft 497 kts 50°
2026-04-18 11:58 64.37628 76.34978 41209 ft 497 kts 50°
2026-04-18 11:59 64.42244 76.46864 41209 ft 496 kts 50°
2026-04-18 11:59 64.46854 76.58796 41210 ft 497 kts 50°
2026-04-18 12:00 64.51468 76.70808 41209 ft 496 kts 51°
2026-04-18 12:00 64.56038 76.82770 41211 ft 496 kts 51°
2026-04-18 12:01 64.62876 77.00792 41211 ft 493 kts 50°
2026-04-18 12:02 64.67404 77.12807 41211 ft 492 kts 50°
2026-04-18 12:02 64.71932 77.24865 41212 ft 492 kts 50°
2026-04-18 12:03 64.76457 77.36943 41213 ft 493 kts 50°
2026-04-18 12:03 64.80955 77.49016 41213 ft 492 kts 50°
2026-04-18 12:04 64.85442 77.61128 41214 ft 493 kts 50°
2026-04-18 12:04 64.89918 77.73278 41213 ft 492 kts 50°
2026-04-18 12:05 64.95034 77.84049 41217 ft 494 kts 38°
2026-04-18 12:05 65.00566 77.93710 41213 ft 494 kts 37°
2026-04-18 12:06 65.06070 78.03367 41214 ft 494 kts 37°
2026-04-18 12:06 65.11601 78.13135 41209 ft 494 kts 37°
2026-04-18 12:07 65.17072 78.22857 41208 ft 494 kts 37°
2026-04-18 12:07 65.22569 78.32679 41208 ft 494 kts 37°
2026-04-18 12:08 65.28100 78.42504 41209 ft 494 kts 37°
2026-04-18 12:08 65.33611 78.52337 41210 ft 495 kts 37°
2026-04-18 12:09 65.39117 78.62215 41210 ft 494 kts 37°
2026-04-18 12:09 65.44615 78.72135 41209 ft 494 kts 38°
2026-04-18 12:10 65.50108 78.82100 41210 ft 494 kts 38°
2026-04-18 12:10 65.55568 78.92061 41210 ft 494 kts 38°
2026-04-18 12:11 65.61051 79.02119 41211 ft 494 kts 38°
2026-04-18 12:11 65.66474 79.12119 41211 ft 492 kts 38°
2026-04-18 12:12 65.71890 79.22160 41212 ft 490 kts 37°
2026-04-18 12:12 65.77304 79.32254 41212 ft 490 kts 37°
2026-04-18 12:13 65.82730 79.42425 41213 ft 491 kts 37°
2026-04-18 12:13 65.88113 79.52569 41213 ft 490 kts 37°
2026-04-18 12:14 65.93488 79.62755 41214 ft 490 kts 37°
2026-04-18 12:14 65.98856 79.72981 41213 ft 490 kts 38°
2026-04-18 12:15 66.04041 79.82913 41213 ft 490 kts 38°
2026-04-18 12:15 66.09414 79.93263 41214 ft 491 kts 38°
2026-04-18 12:16 66.13874 80.01896 41208 ft 490 kts 38°
2026-04-18 12:16 66.20121 80.14055 41209 ft 490 kts 38°
2026-04-18 12:17 66.25446 80.24483 41209 ft 490 kts 38°
2026-04-18 12:17 66.30814 80.35054 41210 ft 490 kts 38°
2026-04-18 12:18 66.36129 80.45577 41210 ft 490 kts 38°
2026-04-18 12:18 66.41231 80.55735 41210 ft 490 kts 38°
2026-04-18 12:19 66.46317 80.65916 41211 ft 490 kts 39°
2026-04-18 12:19 66.51592 80.76533 41229 ft 490 kts 39°
2026-04-18 12:20 66.56813 80.87100 41273 ft 490 kts 39°
2026-04-18 12:20 66.62086 80.97834 41292 ft 488 kts 39°
2026-04-18 12:21 66.67333 81.08574 41293 ft 486 kts 39°
2026-04-18 12:21 66.72526 81.19263 41294 ft 485 kts 39°
2026-04-18 12:22 66.77645 81.29859 41294 ft 485 kts 39°
2026-04-18 12:22 66.82857 81.40707 41294 ft 485 kts 39°
2026-04-18 12:23 66.87996 81.51466 41294 ft 485 kts 39°
2026-04-18 12:23 66.93028 81.62060 41295 ft 485 kts 39°
2026-04-18 12:24 66.98045 81.72678 41293 ft 485 kts 40°
2026-04-18 12:25 67.07198 81.92207 41294 ft 485 kts 40°
2026-04-18 12:25 67.12154 82.02861 41292 ft 486 kts 40°
2026-04-18 12:26 67.17315 82.13889 41293 ft 493 kts 39°
2026-04-18 12:26 67.22398 82.24760 41292 ft 498 kts 39°
2026-04-18 12:27 67.27519 82.35780 41292 ft 497 kts 39°
2026-04-18 12:27 67.32713 82.47026 41292 ft 497 kts 39°
2026-04-18 12:28 67.37780 82.58060 41292 ft 497 kts 39°
2026-04-18 12:28 67.42851 82.69170 41292 ft 498 kts 40°
2026-04-18 12:29 67.47838 82.80158 41292 ft 497 kts 40°
2026-04-18 12:29 67.52790 82.91132 41292 ft 494 kts 40°
2026-04-18 12:30 67.57794 83.02286 41292 ft 487 kts 39°
2026-04-18 12:30 67.62735 83.13361 41293 ft 486 kts 39°
2026-04-18 12:31 67.67673 83.24492 41292 ft 487 kts 39°
2026-04-18 12:31 67.72725 83.35949 40997 ft 479 kts 39°
2026-04-18 12:31 67.75177 83.41534 40044 ft 482 kts 39°
2026-04-18 12:32 67.77703 83.47303 39181 ft 483 kts 39°
2026-04-18 12:32 67.80223 83.53076 38681 ft 475 kts 39°
2026-04-18 12:32 67.82728 83.58833 38102 ft 469 kts 39°
2026-04-18 12:32 67.85178 83.64478 37286 ft 470 kts 39°
2026-04-18 12:33 67.87652 83.70196 36333 ft 473 kts 40°
2026-04-18 12:33 67.90015 83.75674 35461 ft 475 kts 40°
2026-04-18 12:33 67.92336 83.81065 34653 ft 475 kts 40°
2026-04-18 12:33 67.94741 83.86673 33837 ft 475 kts 40°
2026-04-18 12:34 67.97235 83.92503 32961 ft 476 kts 40°
2026-04-18 12:34 67.99723 83.98337 32043 ft 477 kts 40°
2026-04-18 12:34 68.02233 84.04238 31085 ft 479 kts 40°
2026-04-18 12:34 68.04737 84.10145 30227 ft 477 kts 40°
2026-04-18 12:35 68.07193 84.15955 29642 ft 470 kts 40°
2026-04-18 12:35 68.09618 84.21712 29082 ft 463 kts 40°
2026-04-18 12:35 68.11990 84.27356 28457 ft 457 kts 40°
2026-04-18 12:35 68.14352 84.32993 27787 ft 453 kts 40°
2026-04-18 12:36 68.16709 84.38634 27108 ft 448 kts 40°
2026-04-18 12:36 68.18977 84.44077 26464 ft 443 kts 40°
2026-04-18 12:36 68.21258 84.49567 25800 ft 439 kts 40°
2026-04-18 12:36 68.23500 84.54978 25139 ft 434 kts 40°
2026-04-18 12:37 68.25697 84.60293 24469 ft 429 kts 41°
2026-04-18 12:37 68.27801 84.65401 23809 ft 424 kts 41°
2026-04-18 12:37 68.30011 84.70776 23097 ft 419 kts 41°
2026-04-18 12:37 68.32149 84.75993 22395 ft 415 kts 42°
2026-04-18 12:38 68.34286 84.81217 21671 ft 410 kts 42°
2026-04-18 12:38 68.36369 84.86327 20943 ft 405 kts 42°
2026-04-18 12:38 68.38440 84.91418 20212 ft 401 kts 42°
2026-04-18 12:38 68.40475 84.96432 19474 ft 396 kts 42°
2026-04-18 12:39 68.42505 85.01450 18721 ft 391 kts 42°
2026-04-18 12:39 68.44476 85.06332 17973 ft 386 kts 42°
2026-04-18 12:39 68.46438 85.11204 17214 ft 382 kts 42°
2026-04-18 12:39 68.48370 85.16013 16452 ft 377 kts 42°
2026-04-18 12:40 68.50278 85.20773 15678 ft 372 kts 42°
2026-04-18 12:40 68.52165 85.25493 14897 ft 368 kts 42°
2026-04-18 12:40 68.54040 85.30196 14103 ft 363 kts 42°
2026-04-18 12:40 68.55892 85.34851 13299 ft 359 kts 42°
2026-04-18 12:41 68.57695 85.39392 12503 ft 354 kts 42°
2026-04-18 12:41 68.59506 85.43964 11697 ft 350 kts 42°
2026-04-18 12:41 68.61282 85.48460 10902 ft 347 kts 42°
2026-04-18 12:41 68.63036 85.52911 10135 ft 343 kts 41°
2026-04-18 12:42 68.64758 85.57288 9605 ft 332 kts 41°
2026-04-18 12:42 68.66408 85.61491 9338 ft 315 kts 41°
2026-04-18 12:42 68.67960 85.65456 9173 ft 298 kts 42°
2026-04-18 12:42 68.69435 85.69228 9085 ft 281 kts 41°
2026-04-18 12:43 68.70818 85.72772 9000 ft 268 kts 41°
2026-04-18 12:43 68.72185 85.76277 8693 ft 265 kts 41°
2026-04-18 12:43 68.73522 85.79715 8353 ft 263 kts 41°
2026-04-18 12:43 68.74848 85.83130 8130 ft 258 kts 41°
2026-04-18 12:44 68.76149 85.86484 8107 ft 261 kts 41°
2026-04-18 12:44 68.77457 85.89865 8105 ft 262 kts 41°
2026-04-18 12:44 68.78702 85.93089 8104 ft 262 kts 41°
2026-04-18 12:44 68.80009 85.96476 8104 ft 262 kts 41°
2026-04-18 12:45 68.81305 85.99842 8104 ft 262 kts 41°
2026-04-18 12:45 68.82616 86.03255 8101 ft 252 kts 41°
2026-04-18 12:45 68.83858 86.06493 8102 ft 244 kts 41°
2026-04-18 12:45 68.85092 86.09713 8104 ft 241 kts 41°
2026-04-18 12:46 68.86306 86.12885 8104 ft 241 kts 41°
2026-04-18 12:46 68.87522 86.16070 8104 ft 241 kts 41°
2026-04-18 12:46 68.88738 86.19258 8104 ft 241 kts 41°
2026-04-18 12:46 68.89954 86.22453 8105 ft 241 kts 41°
2026-04-18 12:47 68.91187 86.25693 8105 ft 241 kts 41°
2026-04-18 12:47 68.92406 86.28907 8105 ft 241 kts 41°
2026-04-18 12:47 68.93614 86.32098 8105 ft 241 kts 41°
2026-04-18 12:47 68.94809 86.35255 8105 ft 239 kts 41°
2026-04-18 12:48 68.95986 86.38376 8103 ft 234 kts 40°
2026-04-18 12:48 68.97148 86.41457 8105 ft 231 kts 40°
2026-04-18 12:48 68.98295 86.44501 8105 ft 231 kts 40°
2026-04-18 12:48 68.99429 86.47535 8104 ft 231 kts 44°
2026-04-18 12:49 69.00292 86.51112 8098 ft 231 kts 62°
2026-04-18 12:49 69.00951 86.55145 7852 ft 233 kts 64°
2026-04-18 12:49 69.01578 86.59272 7655 ft 231 kts 65°
2026-04-18 12:49 69.02188 86.63396 7357 ft 235 kts 65°
2026-04-18 12:50 69.02787 86.67468 6995 ft 238 kts 66°
2026-04-18 12:50 69.03422 86.71802 6612 ft 241 kts 65°
2026-04-18 12:50 69.04054 86.76120 6174 ft 244 kts 65°
2026-04-18 12:50 69.04694 86.80504 5671 ft 249 kts 65°
2026-04-18 12:51 69.05338 86.84918 5170 ft 252 kts 63°
2026-04-18 12:51 69.06287 86.88837 4661 ft 248 kts 39°
2026-04-18 12:51 69.07652 86.91685 4094 ft 248 kts 31°
2026-04-18 12:51 69.09081 86.94238 3470 ft 252 kts 30°
2026-04-18 12:52 69.10513 86.96742 2930 ft 251 kts 30°
2026-04-18 12:52 69.11984 86.99316 2534 ft 242 kts 30°
2026-04-18 12:52 69.13319 87.01660 2496 ft 217 kts 30°
2026-04-18 12:52 69.14510 87.03754 2493 ft 197 kts 30°
2026-04-18 12:53 69.15628 87.05720 2497 ft 185 kts 30°
2026-04-18 12:53 69.16689 87.07613 2496 ft 177 kts 30°
2026-04-18 12:53 69.17716 87.09446 2495 ft 171 kts 30°
2026-04-18 12:53 69.18690 87.11144 2517 ft 160 kts 29°
2026-04-18 12:54 69.19591 87.12716 2490 ft 142 kts 29°
2026-04-18 12:54 69.20388 87.14114 2493 ft 134 kts 29°
2026-04-18 12:54 69.21159 87.15476 2495 ft 128 kts 29°
2026-04-18 12:54 69.21903 87.16795 2357 ft 123 kts 29°
2026-04-18 12:55 69.22601 87.18031 2208 ft 118 kts 29°
2026-04-18 12:55 69.23278 87.19234 2070 ft 113 kts 29°
2026-04-18 12:55 69.23935 87.20401 1926 ft 112 kts 29°
2026-04-18 12:55 69.24594 87.21573 1778 ft 111 kts 30°
2026-04-18 12:56 69.25247 87.22732 1631 ft 112 kts 31°
2026-04-18 12:56 69.25904 87.23905 1480 ft 111 kts 31°
2026-04-18 12:56 69.26556 87.25067 1329 ft 111 kts 32°
2026-04-18 12:56 69.27203 87.26220 1186 ft 111 kts 32°
2026-04-18 12:57 69.27851 87.27375 1018 ft 111 kts 32°
2026-04-18 12:57 69.28494 87.28515 886 ft 110 kts 32°
2026-04-18 12:57 69.29144 87.29676 727 ft 110 kts 33°
2026-04-18 12:57 69.29787 87.30827 593 ft 109 kts 33°
2026-04-18 12:58 69.30396 87.31924 552 ft 93 kts 32°
2026-04-18 12:58 69.30840 87.32716 560 ft 58 kts 32°
2026-04-18 12:58 69.31122 87.33215 571 ft 44 kts 32°
2026-04-18 12:58 69.31354 87.33631 583 ft 35 kts 32°
2026-04-18 12:59 69.31539 87.33961 592 ft 29 kts 32°
2026-04-18 12:59 69.31710 87.34266 597 ft 28 kts 32°
2026-04-18 12:59 69.31841 87.34503 596 ft 16 kts 32°
2026-04-18 12:59 69.31954 87.34546 594 ft 20 kts 310°
2026-04-18 13:00 69.32037 87.34199 584 ft 11 kts 303°
2026-04-18 13:00 69.32116 87.34026 576 ft 19 kts 19°
2026-04-18 13:00 69.32242 87.34247 573 ft 23 kts 32°
2026-04-18 13:00 69.32312 87.34373 572 ft 5 kts 29°
2026-04-18 13:01 69.32343 87.34301 569 ft 10 kts 296°
2026-04-18 13:01 69.32354 87.34241 567 ft 0 kts 299°